Simultaneous Nadir Overpasses (SNOs) Predictions

Prediction of SNOs between METOP-B and NOAA-19 Satellite Orbit:

Table of predicted SNOs for the next 14.0 days since TLE Epoch: 7/22/2016
Index Date (METOP-B) Time (METOP-B) Lat,Lon (METOP-B) SZA (METOP-B ) Date (NOAA-19) Time (NOAA-19) Lat,Lon (NOAA-19) SZA (NOAA-19 ) Distance(km) Time Diff (sec)
1 07/28/2016 02:16:06 -76.68, -31.19 122.29 07/28/2016 02:15:00 -76.67, -34.63 122.30 88.28 66
2 07/28/2016 03:06:56 76.23, 134.46 57.26 07/28/2016 03:05:53 76.19, 134.45 57.22 4.04 63
3 07/28/2016 03:57:38 -76.22, -58.25 122.75 07/28/2016 03:56:51 -76.19, -58.27 122.78 3.54 47
4 07/28/2016 04:48:19 76.17, 108.90 57.21 07/28/2016 04:47:55 76.19, 108.94 57.24 3.06 24
5 07/28/2016 05:39:01 -76.16, -83.80 122.79 07/28/2016 05:38:53 -76.19, -83.78 122.76 3.36 8
6
